Torna al catalogo

STARLINK-35421

AttivoComunicazioniVLEO
NORAD 66062·PAYLOAD·🇺🇸 United States

Lanciato Oct 19, 2025 da Cape Canaveral Space Force Station

Loading…

Prossimi Passaggi (prossime 24 ore)

TLE

AggiornatoSource: CelesTrak SupGP

Epoca: Sep 14, 2026, 23:05 UTC

1 66062C 25235E   26257.96229167  .00060376  00000+0  17841-2 0  2572
2 66062  53.1582  83.3632 0001101  77.2002 109.7451 15.34355272    17

Traccia STARLINK-35421 in tempo reale con AllMySat

Download on the App Store